Volver al catálogo

COSMOS 2491 DEB

LostPO
NORAD 57561·DEBRIS·🇷🇺 Russia

Lanzado Dec 25, 2013 desde Plesetsk Cosmodrome

Loading…

Próximos Pases (próximas 24 horas)

TLE

ObsoletoSource: Space-Track

Época: Jun 20, 2026, 13:49 UTC

1 57561U 13076AY  26171.57625942  .00002272  00000-0  10754-1 0  9999
2 57561  82.7495 116.0949 0071062 176.9891 183.1649 12.73511281144774

Sigue COSMOS 2491 DEB en tiempo real con AllMySat

Download on the App Store